• In Russia
  • List of Countries
  • For 7 days
  • Water Temperature
  • Satellite Maps
  • Weather Map
  • Weather Widgets
  • user-avatar
    Login

    Hourly Weather Abovyan

    Today, 20 October, Friday

    Time Temperature Precipitation Wind Pressure Humidity
    00:00 +11°C° 0 mm 1 mps 673 mmHg 47%
    01:00 +10°C° 0 mm 1 mps 672 mmHg 48%
    02:00 +10°C° 0 mm 1 mps 672 mmHg 49%
    03:00 +10°C° 0 mm 1 mps 672 mmHg 50%
    04:00 +10°C° 0 mm 1 mps 672 mmHg 52%
    05:00 +9°C° 0 mm 1 mps 672 mmHg 54%
    06:00 +9°C° 0 mm 1 mps 672 mmHg 56%
    07:00 +11°C° 0 mm 1 mps 672 mmHg 50%
    08:00 +13°C° 0 mm 1 mps 673 mmHg 45%
    09:00 +15°C° 0 mm 1 mps 673 mmHg 40%
    10:00 +16°C° 0 mm 1 mps 673 mmHg 36%
    11:00 +18°C° 0 mm 1 mps 673 mmHg 33%
    12:00 +19°C° 0 mm 1 mps 673 mmHg 30%
    13:00 +20°C° 0 mm 1 mps 673 mmHg 29%
    14:00 +20°C° 0 mm 1 mps 673 mmHg 28%
    15:00 +20°C° 0 mm 1 mps 673 mmHg 28%
    16:00 +18°C° 0 mm 1 mps 672 mmHg 32%
    17:00 +16°C° 0 mm 1 mps 672 mmHg 36%
    18:00 +14°C° 0 mm 1 mps 672 mmHg 41%
    19:00 +13°C° 0 mm 1 mps 672 mmHg 42%
    20:00 +13°C° 0 mm 1 mps 672 mmHg 43%
    21:00 +12°C° 0 mm 1 mps 672 mmHg 44%
    22:00 +12°C° 0 mm 1 mps 672 mmHg 45%
    23:00 +11°C° 0 mm 1 mps 672 mmHg 46%

    Tomorrow, 21 October, Saturday

    Time Temperature Precipitation Wind Pressure Humidity
    00:00 +11°C° 0 mm 1 mps 672 mmHg 47%
    01:00 +11°C° 0 mm 1 mps 672 mmHg 48%
    02:00 +10°C° 0 mm 1 mps 672 mmHg 49%
    03:00 +10°C° 0 mm 1 mps 672 mmHg 50%
    04:00 +10°C° 0 mm 1 mps 671 mmHg 51%
    05:00 +8°C° 0 mm 0 mps 671 mmHg 52%
    06:00 +8°C° 0 mm 0 mps 671 mmHg 53%
    07:00 +11°C° 0 mm 1 mps 672 mmHg 47%
    08:00 +13°C° 0 mm 1 mps 672 mmHg 41%
    09:00 +15°C° 0 mm 1 mps 673 mmHg 35%
    10:00 +18°C° 0 mm 1 mps 672 mmHg 32%
    11:00 +19°C° 0 mm 1 mps 672 mmHg 29%
    12:00 +20°C° 0 mm 1 mps 672 mmHg 27%
    13:00 +20°C° 0 mm 1 mps 671 mmHg 27%
    14:00 +20°C° 0 mm 1 mps 671 mmHg 26%
    15:00 +20°C° 0 mm 1 mps 671 mmHg 26%
    16:00 +18°C° 0 mm 1 mps 670 mmHg 30%
    17:00 +15°C° 0 mm 1 mps 670 mmHg 34%
    18:00 +13°C° 0 mm 1 mps 669 mmHg 38%
    19:00 +13°C° 0 mm 1 mps 670 mmHg 39%
    20:00 +13°C° 0 mm 1 mps 670 mmHg 40%
    21:00 +12°C° 0 mm 1 mps 670 mmHg 41%
    22:00 +12°C° 0 mm 1 mps 670 mmHg 42%
    23:00 +12°C° 0 mm 1 mps 670 mmHg 42%

    Day after tomorrow, 22 October, Sunday

    Time Temperature Precipitation Wind Pressure Humidity
    00:00 +11°C° 0 mm 1 mps 669 mmHg 43%
    01:00 +11°C° 0 mm 1 mps 669 mmHg 42%
    02:00 +10°C° 0 mm 1 mps 669 mmHg 42%
    03:00 +10°C° 0 mm 1 mps 669 mmHg 41%
    04:00 +10°C° 0 mm 1 mps 669 mmHg 41%
    05:00 +10°C° 0 mm 1 mps 669 mmHg 41%
    06:00 +9°C° 0 mm 1 mps 669 mmHg 40%
    07:00 +11°C° 0 mm 1 mps 669 mmHg 37%
    08:00 +13°C° 0 mm 1 mps 669 mmHg 34%
    09:00 +15°C° 0 mm 1 mps 670 mmHg 31%
    10:00 +16°C° 0 mm 2 mps 670 mmHg 30%
    11:00 +17°C° 0 mm 2 mps 669 mmHg 28%
    12:00 +18°C° 0 mm 3 mps 669 mmHg 27%
    13:00 +18°C° 0 mm 3 mps 669 mmHg 27%
    14:00 +18°C° 0 mm 3 mps 669 mmHg 27%
    15:00 +18°C° 0 mm 3 mps 668 mmHg 27%
    16:00 +17°C° 0 mm 3 mps 668 mmHg 30%
    17:00 +15°C° 0 mm 2 mps 668 mmHg 34%
    18:00 +14°C° 0 mm 2 mps 668 mmHg 37%
    19:00 +13°C° 0 mm 1 mps 668 mmHg 39%
    20:00 +13°C° 0 mm 1 mps 668 mmHg 40%
    21:00 +12°C° 0 mm 1 mps 668 mmHg 42%
    22:00 +12°C° 0 mm 1 mps 668 mmHg 42%
    23:00 +12°C° 0 mm 1 mps 668 mmHg 43%

    23 October, Monday

    Time Temperature Precipitation Wind Pressure Humidity
    00:00 +11°C° 0 mm 1 mps 668 mmHg 43%
    01:00 +11°C° 0 mm 1 mps 668 mmHg 44%
    02:00 +10°C° 0 mm 1 mps 669 mmHg 45%
    03:00 +10°C° 0 mm 1 mps 669 mmHg 45%
    04:00 +10°C° 0 mm 1 mps 669 mmHg 47%
    05:00 +9°C° 0 mm 1 mps 669 mmHg 49%
    06:00 +9°C° 0 mm 1 mps 669 mmHg 50%
    07:00 +11°C° 0 mm 1 mps 669 mmHg 47%
    08:00 +13°C° 0 mm 1 mps 670 mmHg 43%
    09:00 +14°C° 0 mm 1 mps 671 mmHg 39%
    10:00 +15°C° 0 mm 2 mps 671 mmHg 37%
    11:00 +16°C° 0 mm 2 mps 671 mmHg 34%
    12:00 +17°C° 0 mm 2 mps 670 mmHg 31%
    13:00 +18°C° 0 mm 2 mps 670 mmHg 30%
    14:00 +18°C° 0 mm 2 mps 670 mmHg 29%
    15:00 +18°C° 0 mm 3 mps 670 mmHg 27%
    16:00 +16°C° 0 mm 2 mps 670 mmHg 31%
    17:00 +15°C° 0 mm 2 mps 670 mmHg 34%
    18:00 +13°C° 0 mm 1 mps 670 mmHg 38%
    19:00 +13°C° 0 mm 1 mps 670 mmHg 39%
    20:00 +12°C° 0 mm 1 mps 670 mmHg 40%
    21:00 +12°C° 0 mm 2 mps 671 mmHg 42%
    22:00 +10°C° 0 mm 2 mps 671 mmHg 44%
    23:00 +10°C° 0 mm 2 mps 671 mmHg 46%

    24 October, Tuesday

    Time Temperature Precipitation Wind Pressure Humidity
    00:00 +10°C° 0 mm 2 mps 671 mmHg 48%
    01:00 +9°C° 0 mm 2 mps 671 mmHg 50%
    02:00 +9°C° 0 mm 2 mps 671 mmHg 52%
    03:00 +10°C° 0 mm 1 mps 671 mmHg 54%
    04:00 +10°C° 0 mm 1 mps 671 mmHg 54%
    05:00 +9°C° 0 mm 1 mps 671 mmHg 55%
    06:00 +9°C° 0 mm 1 mps 671 mmHg 55%
    07:00 +11°C° 0 mm 1 mps 672 mmHg 48%
    08:00 +13°C° 0 mm 2 mps 672 mmHg 41%
    09:00 +15°C° 0 mm 2 mps 673 mmHg 34%
    10:00 +16°C° 0 mm 2 mps 673 mmHg 31%
    11:00 +17°C° 0 mm 3 mps 673 mmHg 28%
    12:00 +19°C° 0 mm 3 mps 673 mmHg 25%
    13:00 +19°C° 0 mm 3 mps 672 mmHg 25%
    14:00 +19°C° 0 mm 3 mps 672 mmHg 25%
    15:00 +19°C° 0 mm 3 mps 672 mmHg 25%
    16:00 +17°C° 0 mm 3 mps 672 mmHg 29%
    17:00 +15°C° 0 mm 2 mps 672 mmHg 32%
    18:00 +14°C° 0 mm 2 mps 672 mmHg 36%
    19:00 +13°C° 0 mm 2 mps 672 mmHg 35%
    20:00 +13°C° 0 mm 2 mps 673 mmHg 35%
    21:00 +13°C° 0 mm 2 mps 673 mmHg 34%
    22:00 +13°C° 0 mm 2 mps 673 mmHg 35%
    23:00 +12°C° 0 mm 2 mps 673 mmHg 35%

    25 October, Wednesday

    Time Temperature Precipitation Wind Pressure Humidity
    00:00 +12°C° 0 mm 2 mps 673 mmHg 36%
    01:00 +12°C° 0 mm 2 mps 673 mmHg 37%
    02:00 +12°C° 0 mm 2 mps 673 mmHg 39%
    03:00 +12°C° 0 mm 2 mps 673 mmHg 40%
    04:00 +12°C° 0 mm 2 mps 673 mmHg 42%
    05:00 +10°C° 0 mm 2 mps 673 mmHg 43%
    06:00 +10°C° 0 mm 2 mps 674 mmHg 45%
    07:00 +13°C° 0 mm 2 mps 674 mmHg 41%
    08:00 +15°C° 0 mm 2 mps 675 mmHg 36%
    09:00 +17°C° 0 mm 2 mps 675 mmHg 32%
    10:00 +19°C° 0 mm 3 mps 675 mmHg 30%
    11:00 +20°C° 0 mm 3 mps 675 mmHg 28%
    12:00 +21°C° 0 mm 3 mps 675 mmHg 26%
    13:00 +21°C° 0 mm 3 mps 674 mmHg 26%
    14:00 +21°C° 0 mm 3 mps 674 mmHg 26%
    15:00 +21°C° 0 mm 3 mps 674 mmHg 26%
    16:00 +19°C° 0 mm 3 mps 674 mmHg 30%
    17:00 +18°C° 0 mm 2 mps 673 mmHg 33%
    18:00 +16°C° 0 mm 2 mps 673 mmHg 37%
    19:00 +15°C° 0 mm 2 mps 674 mmHg 37%
    20:00 +15°C° 0 mm 2 mps 674 mmHg 38%
    21:00 +14°C° 0 mm 1 mps 674 mmHg 38%
    22:00 +14°C° 0 mm 1 mps 674 mmHg 38%
    23:00 +14°C° 0 mm 1 mps 674 mmHg 38%
    Show more